[[{"header":{"parameterUnit":"m.s-1","parameterCategory":1,"la1":30.2991,"la2":30.254,"lo1":-89.0895,"lo2":-89.0444,"dy":0.0017,"dx":0.0017,"nx":28,"ny":28,"refTime":"2024-06-19T21:00:00:Z","depth":0,"parameterNumber":2,"parameterNumberName":"U-component_of_WINDS"},"data":[0,0,0,0,0,0,0,0,0,0,0,0,0,0,0,0,0,0,0,0,0,0,0,0,0,0,0,0,0,0,0,0,0,0,0,0,0,0,0,0,0,0,0,0,0,0,0,0,0,0,0,0,0,0,0,0,0,0,-5.956,-5.956,0,-5.9535,-5.9535,-5.9535,-5.9379,-5.9375,-5.9371,-5.9368,-5.9345,-5.9348,-5.9351,0,0,0,0,0,0,0,0,0,0,0,0,0,-5.9475,-5.9477,-5.956,-5.956,-5.9559,-5.9535,-5.9535,-5.9535,-5.938,-5.9375,-5.937,-5.9366,-5.9344,-5.9347,-5.9351,0,0,0,0,0,0,0,0,0,0,0,0,0,-5.9487,-5.9478,-5.956,-5.9479,-5.9471,-5.9535,-5.9535,-5.9535,-5.938,-5.9375,-5.9369,-5.9364,-5.9343,-5.9347,-5.9351,-5.9492,0,0,-5.9365,-5.9367,0,0,0,0,0,0,0,0,-5.9487,-5.9491,-5.9491,-5.9485,-5.9476,-5.9454,-5.9496,-5.9521,-5.9382,-5.9415,-5.9368,-5.9361,-5.9386,-5.9387,-5.9394,-5.9491,-5.949,-5.9365,-5.9368,-5.937,-5.9371,0,0,0,0,0,0,0,-5.9486,-5.9491,-5.955,-5.9491,-5.9482,-5.9445,-5.944,-5.95,-5.9433,-5.9412,-5.94,-5.94,-5.9381,-5.9391,-5.9393,-5.949,-5.9365,-5.9369,-5.9372,-5.9373,-5.9703,-5.9708,0,0,0,0,0,0,-5.9496,-5.9491,-5.9551,-5.9549,-5.9468,-5.9451,-5.9446,-5.9467,-5.9432,-5.9421,-5.9404,-5.9392,-5.9386,-5.9388,-5.9391,-5.9555,-5.937,-5.9374,-5.9376,-5.9697,-5.9704,-5.9711,0,0,0,0,0,0,-5.9495,-5.9503,-5.9552,-5.9517,-5.952,-5.9458,-5.9484,-5.947,-5.9479,-5.9426,-5.9413,-5.9427,-5.9382,-5.9385,-5.9468,-5.9552,-5.9376,-5.938,-5.9689,-5.9699,-5.9707,-5.9884,0,0,0,0,0,0,-5.9493,-5.9504,-5.9556,-5.952,-5.9523,-5.9629,-5.9489,-5.9473,-5.9487,-5.9471,-5.9444,-5.9434,-5.9377,-5.9463,-5.9473,-5.9555,-5.9383,-5.9682,-5.9694,-5.9704,-5.987,-5.9898,-5.9921,0,0,0,0,0,-5.9491,-5.9606,-5.9559,-5.9567,-5.9587,-5.9634,-5.9636,-5.9569,-5.9494,-5.9547,-5.9513,-5.9434,-5.9541,-5.9473,-5.9483,-5.9567,-5.9676,-5.969,-5.9703,-5.9858,-5.9892,-5.9921,0,0,0,0,0,0,-5.9654,-5.96,-5.9547,-5.9654,-5.965,-5.9608,-5.9672,-5.9606,-5.9623,-5.9608,-5.9523,-5.9519,-5.9615,-5.9599,-5.9524,-5.9703,-5.9595,-5.9612,-5.971,-5.9741,-5.9766,-5.9769,-5.9387,0,0,0,0,0,-5.9703,-5.9745,-5.9696,-5.9795,-5.9796,-5.9735,-5.9753,-5.9701,-5.9694,-5.9691,-5.9663,-5.966,-5.9692,-5.9716,-5.9743,-5.9867,-5.9859,-5.993,-5.9956,-5.9977,-5.9993,-6.0059,-6.009,-5.9756,-5.9756,-5.9755,0,0,-5.9804,-5.9779,-5.9811,-5.9828,-5.9818,-5.9865,-5.9734,-5.9789,-5.9823,-5.9699,-5.9777,-5.9757,-5.9747,-5.9852,-5.9897,-5.9842,-6.0083,-5.9994,-6.0012,-6.0016,-6.0076,-6.0108,-6.0136,-5.9765,-5.9763,-5.9762,0,0,-6.0011,-5.9997,-6.0079,-6.0072,-6.0059,-6.0018,-6.0038,-6.0006,-5.9988,-6.0064,-5.9973,-6.0013,-6.007,-6.0068,-6.0074,-6.0283,-6.0213,-6.0294,-6.0429,-6.0494,-6.0521,-6.0544,-6.062,-6.0648,-6.031,-6.031,-6.0311,0,-6.0139,-6.0205,-6.0129,-6.019,-6.0201,-6.0091,-6.0174,-6.0172,-6.0169,-6.018,-6.0118,-6.0189,-6.0175,-6.0278,-6.033,-6.0338,-6.0359,-6.0297,-6.0523,-6.0545,-6.0566,-6.0637,-6.0666,-6.032,-6.0319,-6.0318,-6.0317,0,-6.0362,-6.041,-6.0478,-6.0478,-6.0496,-6.0568,-6.0505,-6.0533,-6.048,-6.0446,-6.0526,-6.0505,-6.0527,-6.0547,-6.0496,-6.0644,-6.0611,-6.0538,-6.0428,-6.0609,-6.0675,-6.0702,-6.0335,-6.0331,-6.0328,-6.0326,0,0,-6.0672,-6.0631,-6.0657,-6.0657,-6.0635,-6.0671,-6.0739,-6.076,-6.0786,-6.0788,-6.0844,-6.0896,-6.0828,-6.0836,-6.0784,-6.0841,-6.101,-6.076,-6.0759,-6.0809,-6.1175,-6.1232,-6.1265,-6.0963,-6.0968,-6.0972,-6.1176,0,-6.0873,-6.0986,-6.0921,-6.1043,-6.1087,-6.0984,-6.1043,-6.1038,-6.1008,-6.1042,-6.1008,-6.1048,-6.0954,-6.0959,-6.1011,-6.0979,-6.1083,-6.0963,-6.1016,-6.1019,-6.1023,-6.1299,-6.1358,-6.1552,-6.1202,-6.1206,-6.1209,0,-6.1122,-6.1135,-6.1263,-6.1234,-6.125,-6.1305,-6.1319,-6.1352,-6.1344,-6.1319,-6.1328,-6.1262,-6.1328,-6.122,-6.1311,-6.1231,-6.1248,-6.1236,-6.1242,-6.1245,-6.1126,-6.1311,-6.1612,-6.1642,-6.1249,-6.1245,-6.1243,0,-6.1337,-6.1387,-6.147,-6.1472,-6.1441,-6.1482,-6.1471,-6.1457,-6.1475,-6.1488,-6.1498,-6.152,-6.1532,-6.155,-6.1493,-6.1419,-6.1592,-6.1478,-6.1574,-6.1576,-6.1616,-6.1615,-6.1926,-6.1626,-6.1626,-6.1625,-6.1624,0,-6.1569,-6.1651,-6.1566,-6.1618,-6.1708,-6.1632,-6.1724,-6.1702,-6.1691,-6.1737,-6.1648,-6.1694,-6.1614,-6.1652,-6.1607,-6.1691,-6.1696,-6.1679,-6.1666,-6.1688,-6.169,-6.1699,-6.1685,-6.1633,-6.1631,-6.1629,-6.1628,0,-6.1825,-6.1771,-6.1855,-6.1819,-6.1812,-6.188,-6.1849,-6.1896,-6.186,-6.192,-6.193,-6.1875,-6.1915,-6.1859,-6.1893,-6.1863,-6.1978,-6.1945,-6.1981,-6.1972,-6.2072,-6.2064,-6.2401,-6.2442,-6.2115,-6.2118,-6.2121,0,-6.1977,-6.2038,-6.2009,-6.2033,-6.2027,-6.2067,-6.2085,-6.2013,-6.2035,-6.2032,-6.208,-6.2112,-6.2135,-6.2204,-6.2168,-6.2195,-6.2162,-6.2278,-6.2165,-6.2186,-6.2166,-6.2163,-6.217,-6.2302,-6.2306,-6.2309,-6.2311,0,-6.2253,-6.2224,-6.2251,-6.2272,-6.2295,-6.2307,-6.2312,-6.2338,-6.2263,-6.2293,-6.2332,-6.235,-6.2385,-6.242,-6.2437,-6.2426,-6.2359,-6.2347,-6.2371,-6.2394,-6.2414,-6.2406,-6.2046,-6.234,-6.2337,-6.2335,-6.2334,-6.2332,-6.2462,-6.2512,-6.25,-6.2535,-6.2532,-6.2539,-6.2582,-6.2552,-6.2584,-6.2607,-6.2563,-6.2615,-6.2607,-6.2623,-6.262,-6.266,-6.261,-6.2644,-6.2653,-6.2663,-6.268,-6.2407,-6.2663,-6.2662,-6.2661,-6.2661,-6.266,0,-6.2735,-6.2722,-6.2755,-6.2766,-6.2794,-6.2725,-6.2729,-6.2757,-6.2803,-6.2801,-6.2825,-6.2873,-6.2906,-6.2873,-6.29,-6.2939,-6.2908,-6.2949,-6.2946,-6.2945,-6.2722,-6.2699,-6.2973,-6.2973,-6.2973,-6.2973,-6.2973,-6.2973,-6.288,-6.2962,-6.2932,-6.3012,-6.2998,-6.3048,-6.3056,-6.3063,-6.3061,-6.3118,-6.3145,-6.3123,-6.3109,-6.3135,-6.3163,-6.3152,-6.3167,-6.322,-6.3199,-6.2991,-6.296,-6.2931,-6.291,-6.3223,-6.3223,-6.3418,-6.342,-6.3421]},{"header":{"parameterUnit":"m.s-1","parameterCategory":1,"la1":30.2991,"la2":30.254,"lo1":-89.0895,"lo2":-89.0444,"dy":0.0017,"dx":0.0017,"nx":28,"ny":28,"refTime":"2024-06-19T21:00:00:Z","depth":0,"parameterNumber":3,"parameterNumberName":"V-component_of_WINDS"},"data":[0,0,0,0,0,0,0,0,0,0,0,0,0,0,0,0,0,0,0,0,0,0,0,0,0,0,0,0,0,0,0,0,0,0,0,0,0,0,0,0,0,0,0,0,0,0,0,0,0,0,0,0,0,0,0,0,0,0,-0.4663,-0.4663,0,-0.4682,-0.4682,-0.4682,-0.4635,-0.4634,-0.4632,-0.4631,-0.4653,-0.4655,-0.4657,0,0,0,0,0,0,0,0,0,0,0,0,0,-0.4588,-0.459,-0.4663,-0.4663,-0.4663,-0.4682,-0.4682,-0.4682,-0.4635,-0.4634,-0.4632,-0.463,-0.4653,-0.4655,-0.4657,0,0,0,0,0,0,0,0,0,0,0,0,0,-0.4615,-0.459,-0.4663,-0.4642,-0.464,-0.4682,-0.4682,-0.4682,-0.4636,-0.4634,-0.4631,-0.4629,-0.4652,-0.4655,-0.4658,-0.4721,0,0,-0.4667,-0.4668,0,0,0,0,0,0,0,0,-0.4614,-0.4618,-0.4645,-0.4644,-0.4642,-0.4654,-0.4664,-0.4695,-0.4636,-0.4638,-0.4631,-0.4628,-0.4655,-0.4658,-0.4666,-0.4722,-0.4723,-0.4667,-0.4669,-0.467,-0.4671,0,0,0,0,0,0,0,-0.4612,-0.4617,-0.467,-0.4645,-0.4644,-0.4632,-0.4634,-0.467,-0.4659,-0.4637,-0.4634,-0.4637,-0.4654,-0.4664,-0.4667,-0.4723,-0.4667,-0.467,-0.4671,-0.4673,-0.4831,-0.4834,0,0,0,0,0,0,-0.4612,-0.4616,-0.467,-0.4671,-0.4622,-0.4636,-0.4637,-0.4652,-0.4658,-0.4657,-0.4639,-0.4634,-0.466,-0.4663,-0.4667,-0.4743,-0.467,-0.4673,-0.4675,-0.4829,-0.4832,-0.4834,0,0,0,0,0,0,-0.4611,-0.4618,-0.4669,-0.4642,-0.4648,-0.4639,-0.4657,-0.4654,-0.4663,-0.4659,-0.4657,-0.465,-0.4658,-0.4663,-0.4708,-0.4743,-0.4674,-0.4677,-0.4826,-0.483,-0.4833,-0.4894,0,0,0,0,0,0,-0.4609,-0.4617,-0.4641,-0.4643,-0.465,-0.4709,-0.4659,-0.4656,-0.4668,-0.4663,-0.467,-0.4669,-0.4657,-0.4703,-0.4711,-0.4746,-0.4679,-0.4823,-0.4828,-0.4832,-0.4889,-0.4899,-0.4908,0,0,0,0,0,-0.4607,-0.4658,-0.4643,-0.465,-0.4679,-0.4711,-0.4715,-0.4699,-0.4671,-0.4695,-0.4692,-0.4669,-0.4737,-0.4708,-0.4716,-0.4753,-0.4821,-0.4826,-0.4832,-0.4884,-0.4897,-0.4907,0,0,0,0,0,0,-0.4662,-0.4658,-0.4641,-0.4695,-0.4703,-0.4703,-0.4733,-0.4713,-0.4731,-0.4725,-0.4705,-0.4707,-0.4756,-0.4758,-0.4726,-0.4814,-0.4774,-0.4782,-0.4812,-0.4824,-0.4833,-0.4833,-0.4682,0,0,0,0,0,-0.468,-0.4706,-0.4701,-0.4749,-0.4754,-0.4743,-0.4756,-0.4743,-0.4752,-0.4756,-0.4756,-0.4766,-0.479,-0.4806,-0.4828,-0.4887,-0.4889,-0.4916,-0.4925,-0.4933,-0.4941,-0.4974,-0.4986,-0.4852,-0.4852,-0.4852,0,0,-0.4719,-0.472,-0.4738,-0.476,-0.4765,-0.4793,-0.4746,-0.4778,-0.4799,-0.4761,-0.4803,-0.4803,-0.4813,-0.4866,-0.4889,-0.4869,-0.4977,-0.494,-0.4947,-0.495,-0.498,-0.4993,-0.5004,-0.4856,-0.4855,-0.4855,0,0,-0.4804,-0.4806,-0.4847,-0.4853,-0.486,-0.4852,-0.4862,-0.4864,-0.4863,-0.4904,-0.4876,-0.49,-0.4941,-0.495,-0.496,-0.5045,-0.5025,-0.5052,-0.5104,-0.5136,-0.5147,-0.5156,-0.5189,-0.52,-0.5059,-0.5059,-0.5059,0,-0.4852,-0.4892,-0.4871,-0.4904,-0.4915,-0.4879,-0.4921,-0.4927,-0.4943,-0.4951,-0.4928,-0.4978,-0.4982,-0.5037,-0.5058,-0.5066,-0.5077,-0.5054,-0.5147,-0.5156,-0.5164,-0.5195,-0.5207,-0.5063,-0.5063,-0.5062,-0.5062,0,-0.4951,-0.4979,-0.5011,-0.5025,-0.5039,-0.5076,-0.5061,-0.5078,-0.5062,-0.5057,-0.51,-0.5103,-0.5125,-0.5135,-0.5121,-0.5188,-0.5176,-0.515,-0.511,-0.5181,-0.521,-0.5221,-0.5068,-0.5067,-0.5066,-0.5065,0,0,-0.5076,-0.5075,-0.5088,-0.5094,-0.5099,-0.512,-0.5155,-0.5175,-0.5191,-0.5201,-0.5232,-0.5266,-0.5241,-0.5252,-0.5238,-0.5266,-0.5335,-0.5236,-0.5236,-0.5257,-0.5411,-0.5433,-0.5447,-0.532,-0.5322,-0.5323,-0.5411,0,-0.5161,-0.5222,-0.5202,-0.5264,-0.529,-0.5255,-0.5285,-0.5292,-0.5287,-0.5309,-0.5303,-0.5329,-0.5293,-0.53,-0.5325,-0.5322,-0.5367,-0.5314,-0.535,-0.5351,-0.5352,-0.5462,-0.5485,-0.5568,-0.5422,-0.5424,-0.5425,0,-0.5271,-0.5285,-0.5348,-0.5348,-0.5358,-0.5386,-0.5403,-0.5423,-0.543,-0.5424,-0.5435,-0.5415,-0.545,-0.5407,-0.5456,-0.5421,-0.5433,-0.5433,-0.5436,-0.5442,-0.5395,-0.5473,-0.5593,-0.5607,-0.5442,-0.5441,-0.5439,0,-0.5359,-0.5393,-0.5435,-0.5441,-0.5441,-0.5462,-0.5463,-0.5467,-0.548,-0.5494,-0.5502,-0.552,-0.5531,-0.5546,-0.5531,-0.5501,-0.5583,-0.5539,-0.5581,-0.5582,-0.5603,-0.5603,-0.5731,-0.5606,-0.5606,-0.5606,-0.5605,0,-0.5459,-0.55,-0.5475,-0.5501,-0.5546,-0.5523,-0.5568,-0.5565,-0.5568,-0.5594,-0.5564,-0.5589,-0.5566,-0.559,-0.5578,-0.5621,-0.5625,-0.5623,-0.562,-0.5628,-0.5629,-0.5639,-0.5634,-0.5609,-0.5608,-0.5607,-0.5607,0,-0.5566,-0.555,-0.5595,-0.559,-0.559,-0.5624,-0.562,-0.5645,-0.5636,-0.5669,-0.5676,-0.5663,-0.5688,-0.5674,-0.57,-0.5692,-0.5749,-0.5737,-0.5747,-0.5745,-0.5789,-0.5787,-0.5931,-0.595,-0.581,-0.5811,-0.5813,0,-0.5633,-0.5663,-0.5661,-0.5676,-0.5679,-0.5703,-0.5715,-0.5693,-0.5707,-0.5716,-0.574,-0.5762,-0.578,-0.5822,-0.5816,-0.5836,-0.5826,-0.5874,-0.5829,-0.5835,-0.583,-0.5829,-0.5833,-0.5885,-0.5887,-0.5888,-0.5889,0,-0.5754,-0.5744,-0.5763,-0.5779,-0.5794,-0.5806,-0.5816,-0.5829,-0.5806,-0.5824,-0.5849,-0.5862,-0.5888,-0.5912,-0.5928,-0.593,-0.5907,-0.5903,-0.5914,-0.5924,-0.593,-0.593,-0.5776,-0.5901,-0.59,-0.5899,-0.5898,-0.5898,-0.5845,-0.587,-0.5873,-0.5895,-0.5899,-0.5908,-0.5931,-0.5924,-0.5944,-0.5963,-0.5948,-0.5978,-0.5983,-0.6003,-0.6007,-0.6031,-0.6012,-0.6028,-0.6032,-0.6037,-0.6045,-0.5923,-0.6034,-0.6033,-0.6033,-0.6033,-0.6032,0,-0.5966,-0.5965,-0.5985,-0.5999,-0.6016,-0.5989,-0.5998,-0.6015,-0.6041,-0.6047,-0.6064,-0.6093,-0.6114,-0.6108,-0.6128,-0.6149,-0.6139,-0.6155,-0.6155,-0.6156,-0.606,-0.6049,-0.6163,-0.6163,-0.6163,-0.6163,-0.6163,-0.6163,-0.6032,-0.6074,-0.6064,-0.6108,-0.6107,-0.6136,-0.6143,-0.6152,-0.6156,-0.6189,-0.6207,-0.6202,-0.6203,-0.6222,-0.6242,-0.6239,-0.6249,-0.6271,-0.6265,-0.6176,-0.6163,-0.6151,-0.6141,-0.6272,-0.6272,-0.636,-0.636,-0.6361]}]]